Regional Weather Roundup
Issued by NWS

Home | Current Version | Previous Version | Graphics & Text | Print | Product List | Glossary On
Versions: 1 2 3 4 5 6 7 8 9 10 11 12 13 14 15 16 17 18 19 20 21 22 23 24 25 26 27 28 29 30 31 32 33 34 35 36 37 38 39 40 41 42 43 44 45 46 47 48 49 50
000
ASUS45 KABQ 170310
RWRNM
NEW MEXICO REGIONAL WEATHER ROUNDUP
NATIONAL WEATHER SERVICE ALBUQUERQUE NM
800 PM MST MON JAN 16 2017

NOTE: "FAIR" MEANS FEW OR NO CLOUDS BELOW 12,000 FEET AGL WITH NO
       SIGNIFICANT WEATHER OR OBSTRUCTIONS TO VISION.

      THIS PRODUCT IS RELEASED AS TWO VERSIONS.  ONE VERSION NEAR
      THE TOP OF THE HOUR CONTAINING PRELIMINARY DATA FROM ALBUQUERQUE
      AND OTHER STATIONS.  A FINAL VERSION WITH ADDITIONAL DATA IS
      ISSUED ABOUT 10 MINUTES AFTER THE HOUR.

NMZ501-503-504-510>518-170400-
NORTHWEST PLATEAU/NORTHCENTRAL MOUNTAINS

CITY           SKY/WX    TMP DP  RH WIND       PRES   REMARKS
FARMINGTON     LGT RAIN  33  32  96 SW3       30.05R
LOS ALAMOS     LGT SNOW  32  32 100 CALM      30.08R VSB 1
SANTA FE       CLOUDY    36  34  92 S10       30.07R WCI  28
TAOS           CLOUDY    32  25  74 CALM      30.07R
ANGEL FIRE     FLURRIES  30  27  90 E5        30.07S WCI  25

$$
NMZ402-403-502-505>509-170400-
WESTCENTRAL MOUNTAINS/SOUTHWEST MOUNTAINS

CITY           SKY/WX    TMP DP  RH WIND       PRES   REMARKS
GALLUP         LGT SNOW  33  32  96 NE6       30.06R FOG     WCI  28
GRANTS         CLOUDY    37  33  86 N6        30.07R WCI  33
SILVER CITY    FAIR      39  37  89 N5        30.05S

$$
NMZ407-409-411-412-170400-
SOUTHERN DESERTS

CITY           SKY/WX    TMP DP  RH WIND       PRES   REMARKS
DEMING         FAIR      44  38  79 W3        30.04S
LAS CRUCES     FAIR      42  38  85 NW3       30.06R
HOLLOMAN AFB   FAIR      44  44  99 NE8       30.08S
ALAMOGORDO     FAIR      45  37  76 N3        30.06S
T OR C         CLOUDY    43  39  86 NW7       30.05R

$$
NMZ519>523-170400-
CENTRAL VALLEYS/CENTRAL HIGHLANDS

CITY           SKY/WX    TMP DP  RH WIND       PRES   REMARKS
ALBUQUERQUE    CLOUDY    43  39  86 SW8       30.07R
DOUBLE EAGLE   LGT RAIN  37  37 100 SW10      30.08R WCI  30
MORIARTY ARPT  CLOUDY    35  32  88 E12       30.10R WCI  27
CLINES CORNERS LGT SNOW  32  30  92 E5        30.11R FOG     WCI  27
BELEN          DRIZZLE   42  38  87 CALM      30.07R
SOCORRO        DRIZZLE   44  39  83 S3        30.06R

$$
NMZ524>526-539-540-170400-
SOUTHCENTRAL MOUNTAINS

CITY           SKY/WX    TMP DP  RH WIND       PRES   REMARKS
RUIDOSO        LGT RAIN  36  36 100 SW3       30.12R

$$
NMZ527>531-170400-
NORTHEAST HIGHLANDS/NORTHEAST PLAINS

CITY           SKY/WX    TMP DP  RH WIND       PRES   REMARKS
LAS VEGAS      CLOUDY    31  28  89 E9        30.09R WCI  23
RATON          CLOUDY    32  24  72 N10       30.09R WCI  24
CLAYTON        CLOUDY    34  32  92 N16G26    30.08S WCI  24

$$
NMZ532>537-170400-
EASTCENTRAL PLAINS

CITY           SKY/WX    TMP DP  RH WIND       PRES   REMARKS
TUCUMCARI      CLOUDY    40  32  73 NE10      30.10R WCI  33
CANNON AFB     MOCLDY    37  37 100 NE12      30.10R WCI  29
CLOVIS AIRPORT FAIR      36  30  80 N13       30.10S WCI  27

$$
NMZ028-029-538-170400-
SOUTHEAST PLAINS

CITY           SKY/WX    TMP DP  RH WIND       PRES   REMARKS
ROSWELL        CLOUDY    50  40  68 N9        30.04R
ARTESIA        FAIR      46  45  93 W6        30.04R
CARLSBAD       FAIR      46  39  76 W3        30.02R


$$



USA.gov is the U.S. government's official web portal to all federal, state and local government web resources and services.